| time (UTC) | temp F | wind direction | speed knots | gust knots | rain 1hr in | rain 24hr in | rain mn in | humidity % | barometer mb |
| 20260507123005 | 61 | 136 | 2.6 | 7.8 | 0.00 | 0.00 | 0.00 | 58 | 1016.5 |
| 20260507122005 | 62 | 146 | 2.6 | 7.8 | 0.00 | 0.00 | 0.00 | 61 | 1016.6 |
| 20260507121004 | 62 | 124 | 2.6 | 6.1 | 0.00 | 0.00 | 0.00 | 64 | 1016.7 |
| 20260507120004 | 60 | 147 | 2.6 | 6.1 | 0.00 | 0.00 | 0.00 | 64 | 1016.7 |
| 20260507115003 | 58 | 135 | 2.6 | 7.8 | 0.00 | 0.00 | 0.00 | 68 | 1016.8 |
| 20260507114003 | 56 | 115 | 2.6 | 7.8 | 0.00 | 0.00 | 0.00 | 68 | 1016.8 |
| 20260507113004 | 57 | 70 | 0.9 | 7.8 | 0.00 | 0.00 | 0.00 | 67 | 1016.9 |
| 20260507112004 | 57 | 108 | 0.9 | 5.2 | 0.00 | 0.00 | 0.00 | 68 | 1016.9 |
| 20260507111004 | 58 | 132 | 0.9 | 7.8 | 0.00 | 0.00 | 0.00 | 66 | 1017.0 |
| 20260507110004 | 58 | 100 | 0.9 | 3.5 | 0.00 | 0.00 | 0.00 | 70 | 1017.1 |
| 20260507105004 | 57 | 123 | 0.9 | 6.1 | 0.00 | 0.00 | 0.00 | 69 | 1017.1 |
| 20260507104006 | 56 | 120 | 0.9 | 3.5 | 0.00 | 0.00 | 0.00 | 70 | 1017.0 |
| 20260507103006 | 57 | 128 | 0.9 | 5.2 | 0.00 | 0.00 | 0.00 | 68 | 1017.1 |
| 20260507102007 | 58 | 131 | 0.9 | 5.2 | 0.00 | 0.01 | 0.00 | 67 | 1017.1 |
| 20260507101004 | 58 | 127 | 0.9 | 6.1 | 0.00 | 0.01 | 0.00 | 66 | 1017.1 |
| 20260507100006 | 58 | 127 | 0.9 | 5.2 | 0.00 | 0.01 | 0.00 | 69 | 1017.0 |
| 20260507095005 | 57 | 139 | 2.6 | 10.4 | 0.00 | 0.01 | 0.00 | 70 | 1016.9 |
| 20260507094005 | 56 | 128 | 0.9 | 7.8 | 0.00 | 0.01 | 0.00 | 72 | 1017.0 |
| 20260507093004 | 55 | 66 | 0.9 | 3.5 | 0.00 | 0.01 | 0.00 | 72 | 1017.0 |
| 20260507092005 | 54 | 46 | 0.9 | 5.2 | 0.00 | 0.01 | 0.00 | 72 | 1016.9 |
| 20260507091005 | 54 | 0 | 0.0 | 5.2 | 0.00 | 0.02 | 0.00 | 73 | 1016.9 |
| 20260507090011 | 54 | 84 | 0.9 | 3.5 | 0.00 | 0.02 | 0.00 | 73 | 1016.9 |
| 20260507085005 | 54 | 122 | 0.9 | 3.5 | 0.00 | 0.02 | 0.00 | 77 | 1017.0 |
| 20260507084005 | 52 | 80 | 0.9 | 3.5 | 0.00 | 0.02 | 0.00 | 78 | 1016.9 |
| 20260507083005 | 52 | 76 | 0.9 | 3.5 | 0.00 | 0.02 | 0.00 | 77 | 1016.9 |
| 20260507080005 | 52 | 0 | 0.0 | 0.9 | 0.00 | 0.02 | 0.00 | 76 | 1016.7 |
| 20260507075004 | 52 | 117 | 0.9 | 3.5 | 0.00 | 0.02 | 0.00 | 77 | 1016.7 |
| 20260507074004 | 52 | 69 | 0.9 | 3.5 | 0.00 | 0.02 | 0.00 | 77 | 1016.6 |
| 20260507073004 | 52 | 135 | 0.9 | 5.2 | 0.00 | 0.02 | 0.00 | 79 | 1016.6 |
| 20260507072005 | 51 | 138 | 0.9 | 5.2 | 0.00 | 0.02 | 0.00 | 82 | 1016.5 |
| 20260507065004 | 47 | 0 | 0.0 | 3.5 | 0.00 | 0.02 | 0.00 | 89 | 1016.5 |
| 20260507064005 | 47 | 0 | 0.0 | 3.5 | 0.00 | 0.02 | 0.00 | 90 | 1016.5 |
| 20260507063005 | 46 | 0 | 0.0 | 3.5 | 0.00 | 0.02 | 0.00 | 91 | 1016.4 |
| 20260507062005 | 46 | 0 | 0.0 | 3.5 | 0.00 | 0.02 | 0.00 | 91 | 1016.4 |
| 20260507061005 | 46 | 0 | 0.0 | 2.6 | 0.00 | 0.02 | 0.00 | 92 | 1016.4 |
| 20260507060006 | 45 | 0 | 0.0 | 0.9 | 0.00 | 0.02 | 0.00 | 92 | 1016.2 |
| 20260507055005 | 45 | 0 | 0.0 | 0.9 | 0.00 | 0.02 | 0.00 | 92 | 1016.3 |
| 20260507054005 | 45 | 0 | 0.0 | 2.6 | 0.00 | 0.02 | 0.00 | 92 | 1016.1 |
| 20260507053006 | 45 | 0 | 0.0 | 0.9 | 0.00 | 0.02 | 0.00 | 92 | 1016.0 |
| 20260507052004 | 44 | 0 | 0.0 | 2.6 | 0.00 | 0.02 | 0.00 | 92 | 1016.0 |
| 20260507051004 | 44 | 0 | 0.0 | 2.6 | 0.00 | 0.02 | 0.00 | 92 | 1016.0 |
| 20260507050005 | 44 | 0 | 0.0 | 0.0 | 0.00 | 0.02 | 0.00 | 92 | 1015.9 |
| 20260507045004 | 44 | 0 | 0.0 | 0.0 | 0.00 | 0.02 | 0.00 | 92 | 1015.8 |
| 20260507043004 | 44 | 0 | 0.0 | 0.0 | 0.00 | 0.02 | 0.00 | 92 | 1015.7 |
| 20260507042005 | 44 | 0 | 0.0 | 0.0 | 0.00 | 0.02 | 0.00 | 92 | 1015.7 |
| 20260507041004 | 44 | 0 | 0.0 | 0.0 | 0.00 | 0.02 | 0.00 | 92 | 1015.7 |
| 20260507040005 | 44 | 0 | 0.0 | 0.0 | 0.00 | 0.02 | 0.00 | 92 | 1015.6 |
| 20260507033004 | 45 | 0 | 0.0 | 0.0 | 0.00 | 0.02 | 0.00 | 92 | 1015.6 |
| 20260507032005 | 45 | 0 | 0.0 | 0.0 | 0.00 | 0.02 | 0.00 | 92 | 1015.6 |
| 20260507031004 | 45 | 0 | 0.0 | 0.9 | 0.00 | 0.02 | 0.00 | 92 | 1015.6 |
| 20260507030006 | 45 | 0 | 0.0 | 0.0 | 0.00 | 0.02 | 0.00 | 92 | 1015.6 |
| 20260507025005 | 45 | 0 | 0.0 | 0.0 | 0.00 | 0.02 | 0.00 | 92 | 1015.5 |
| 20260507024004 | 45 | 0 | 0.0 | 0.9 | 0.00 | 0.02 | 0.00 | 92 | 1015.5 |
| 20260507023006 | 45 | 0 | 0.0 | 0.9 | 0.00 | 0.02 | 0.00 | 92 | 1015.6 |
| 20260507022005 | 45 | 0 | 0.0 | 0.0 | 0.00 | 0.02 | 0.00 | 92 | 1015.5 |
| 20260507021005 | 45 | 0 | 0.0 | 0.0 | 0.00 | 0.02 | 0.00 | 92 | 1015.5 |
| 20260507020007 | 45 | 0 | 0.0 | 0.0 | 0.00 | 0.02 | 0.00 | 91 | 1015.6 |
| 20260507015005 | 45 | 0 | 0.0 | 0.0 | 0.00 | 0.02 | 0.00 | 91 | 1015.4 |
| 20260507014005 | 45 | 0 | 0.0 | 0.0 | 0.00 | 0.02 | 0.00 | 91 | 1015.4 |
| 20260507012006 | 45 | 0 | 0.0 | 0.0 | 0.00 | 0.02 | 0.00 | 91 | 1015.4 |
| 20260507010005 | 46 | 0 | 0.0 | 0.9 | 0.00 | 0.02 | 0.00 | 91 | 1015.4 |
| 20260507005005 | 46 | 0 | 0.0 | 0.9 | 0.00 | 0.02 | 0.00 | 91 | 1015.4 |
| 20260507004005 | 46 | 0 | 0.0 | 0.0 | 0.00 | 0.02 | 0.00 | 91 | 1015.4 |
| 20260507003005 | 46 | 0 | 0.0 | 0.0 | 0.00 | 0.02 | 0.00 | 91 | 1015.3 |
| 20260507002004 | 46 | 0 | 0.0 | 0.0 | 0.00 | 0.02 | 0.00 | 91 | 1015.3 |
| 20260507001006 | 46 | 0 | 0.0 | 2.6 | 0.00 | 0.02 | 0.00 | 91 | 1015.4 |
| 20260507000005 | 46 | 0 | 0.0 | 0.9 | 0.00 | 0.02 | 0.00 | 90 | 1015.5 |
| 20260506235004 | 46 | 0 | 0.0 | 0.0 | 0.00 | 0.02 | 0.02 | 90 | 1015.5 |
| 20260506234006 | 46 | 0 | 0.0 | 0.9 | 0.00 | 0.02 | 0.02 | 90 | 1015.5 |
| 20260506231005 | 46 | 0 | 0.0 | 0.9 | 0.00 | 0.02 | 0.02 | 90 | 1015.3 |
| 20260506230006 | 46 | 0 | 0.0 | 0.0 | 0.00 | 0.02 | 0.02 | 90 | 1015.4 |
| 20260506225004 | 46 | 0 | 0.0 | 0.9 | 0.00 | 0.02 | 0.02 | 89 | 1015.4 |
| 20260506224005 | 46 | 0 | 0.0 | 0.0 | 0.00 | 0.02 | 0.02 | 89 | 1015.3 |
| 20260506223004 | 46 | 0 | 0.0 | 0.9 | 0.00 | 0.02 | 0.02 | 89 | 1015.2 |
| 20260506222004 | 47 | 0 | 0.0 | 2.6 | 0.00 | 0.02 | 0.02 | 89 | 1015.2 |
| 20260506221005 | 47 | 0 | 0.0 | 2.6 | 0.00 | 0.02 | 0.02 | 89 | 1015.0 |
| 20260506215006 | 47 | 0 | 0.0 | 2.6 | 0.00 | 0.02 | 0.02 | 89 | 1015.0 |
| 20260506213006 | 47 | 0 | 0.0 | 2.6 | 0.00 | 0.02 | 0.02 | 88 | 1014.8 |
| 20260506212005 | 47 | 0 | 0.0 | 2.6 | 0.00 | 0.02 | 0.02 | 88 | 1014.8 |
| 20260506211004 | 48 | 0 | 0.0 | 3.5 | 0.00 | 0.02 | 0.02 | 88 | 1014.8 |
| 20260506205004 | 48 | 64 | 0.9 | 6.1 | 0.00 | 0.02 | 0.02 | 89 | 1014.8 |
| 20260506204004 | 48 | 0 | 0.0 | 3.5 | 0.00 | 0.02 | 0.02 | 88 | 1014.7 |
| 20260506203006 | 48 | 0 | 0.0 | 3.5 | 0.00 | 0.02 | 0.02 | 89 | 1014.7 |
| 20260506202004 | 48 | 0 | 0.0 | 2.6 | 0.00 | 0.02 | 0.02 | 88 | 1014.7 |
| 20260506201004 | 48 | 0 | 0.0 | 3.5 | 0.00 | 0.02 | 0.02 | 88 | 1014.6 |
| 20260506200005 | 48 | 74 | 0.9 | 5.2 | 0.00 | 0.02 | 0.02 | 89 | 1014.6 |
| 20260506195004 | 48 | 74 | 0.9 | 5.2 | 0.00 | 0.02 | 0.02 | 89 | 1014.4 |
| 20260506194005 | 49 | 57 | 2.6 | 5.2 | 0.00 | 0.02 | 0.02 | 90 | 1014.3 |
| 20260506193006 | 49 | 56 | 0.9 | 3.5 | 0.00 | 0.02 | 0.02 | 90 | 1014.2 |
| 20260506191005 | 50 | 57 | 0.9 | 3.5 | 0.00 | 0.02 | 0.02 | 89 | 1014.1 |
| 20260506190006 | 50 | 26 | 0.9 | 5.2 | 0.00 | 0.02 | 0.02 | 88 | 1014.0 |
| 20260506185005 | 50 | 56 | 0.9 | 5.2 | 0.00 | 0.02 | 0.02 | 88 | 1013.9 |
| 20260506184004 | 50 | 65 | 0.9 | 3.5 | 0.00 | 0.02 | 0.02 | 87 | 1013.9 |
| 20260506182004 | 50 | 55 | 0.9 | 3.5 | 0.00 | 0.02 | 0.02 | 87 | 1013.8 |
| 20260506181004 | 51 | 29 | 0.9 | 3.5 | 0.00 | 0.02 | 0.02 | 86 | 1013.6 |
| 20260506180006 | 51 | 45 | 0.9 | 5.2 | 0.00 | 0.02 | 0.02 | 86 | 1013.5 |
| 20260506175004 | 51 | 56 | 0.9 | 3.5 | 0.00 | 0.02 | 0.02 | 86 | 1013.5 |
| 20260506174005 | 51 | 66 | 0.9 | 3.5 | 0.00 | 0.02 | 0.02 | 85 | 1013.4 |
| 20260506173005 | 51 | 53 | 0.9 | 3.5 | 0.00 | 0.02 | 0.02 | 85 | 1013.4 |
| 20260506172005 | 51 | 55 | 2.6 | 5.2 | 0.00 | 0.02 | 0.02 | 85 | 1013.3 |
| 20260506165006 | 51 | 49 | 0.9 | 5.2 | 0.00 | 0.02 | 0.02 | 84 | 1013.1 |
| 20260506164005 | 52 | 57 | 3.5 | 7.8 | 0.00 | 0.02 | 0.02 | 82 | 1013.1 |
| 20260506163004 | 52 | 37 | 3.5 | 5.2 | 0.00 | 0.02 | 0.02 | 80 | 1013.2 |
| 20260506160005 | 55 | 18 | 2.6 | 6.1 | 0.00 | 0.02 | 0.02 | 77 | 1013.2 |
| 20260506155005 | 55 | 342 | 0.9 | 7.8 | 0.00 | 0.02 | 0.02 | 80 | 1013.1 |
| 20260506154005 | 54 | 31 | 2.6 | 7.8 | 0.00 | 0.02 | 0.02 | 79 | 1013.1 |
| 20260506152004 | 54 | 351 | 0.9 | 6.1 | 0.00 | 0.02 | 0.02 | 80 | 1013.0 |
| 20260506151005 | 53 | 346 | 0.9 | 3.5 | 0.00 | 0.02 | 0.02 | 81 | 1013.0 |
| 20260506150005 | 52 | 2 | 0.9 | 5.2 | 0.00 | 0.02 | 0.02 | 83 | 1013.0 |
| 20260506144005 | 51 | 23 | 2.6 | 7.8 | 0.00 | 0.02 | 0.02 | 83 | 1013.2 |
| 20260506141004 | 51 | 26 | 3.5 | 11.3 | 0.00 | 0.02 | 0.02 | 83 | 1013.2 |
| 20260506140005 | 51 | 26 | 3.5 | 13.0 | 0.00 | 0.02 | 0.02 | 83 | 1013.2 |
| 20260506135005 | 51 | 34 | 3.5 | 10.4 | 0.00 | 0.02 | 0.02 | 83 | 1013.2 |
| 20260506133006 | 51 | 26 | 3.5 | 10.4 | 0.00 | 0.02 | 0.02 | 84 | 1013.2 |
| 20260506131004 | 51 | 26 | 3.5 | 10.4 | 0.00 | 0.02 | 0.02 | 84 | 1013.1 |
| 20260506130006 | 52 | 16 | 3.5 | 13.0 | 0.00 | 0.02 | 0.02 | 84 | 1013.1 |
| 20260506125004 | 52 | 31 | 3.5 | 8.7 | 0.00 | 0.02 | 0.02 | 83 | 1012.9 |
| 20260506124005 | 51 | 26 | 3.5 | 11.3 | 0.00 | 0.02 | 0.02 | 81 | 1013.0 |